Location: Ravenna
(44.4180°N, 12.2010°E)
Time: 04:21:31
(UTC+01:00)

ISS - Visible Passes

Search period start: 23 January 2019 00:00
Search period end: 02 February 2019 00:00
Orbit: 404 x 411 km, 51.6° (Epoch: 23 January)

Date Brightness Start Highest point End Pass type
(mag) Time Alt. Az. Time Alt. Az. Time Alt. Az.
23 Jan -3.2 18:37:30 10° SSW 18:40:36 40° SE 18:41:04 38° ESE visible
24 Jan -2.3 17:46:43 10° SSW 17:49:24 23° SE 17:52:03 10° E visible
24 Jan -2.4 19:22:29 10° WSW 19:24:46 38° W 19:24:46 38° W visible
25 Jan -3.9 18:31:02 10° WSW 18:34:20 88° NW 18:35:40 33° ENE visible
25 Jan -0.2 20:08:20 10° WNW 20:08:24 10° WNW 20:08:24 10° WNW visible
26 Jan -3.4 17:39:47 10° SW 17:43:00 53° SE 17:46:14 10° ENE visible
26 Jan -2.3 19:16:38 10° W 19:19:13 31° NW 19:19:13 31° NW visible
27 Jan -3.1 18:24:58 10° W 18:28:10 45° NNW 18:30:00 22° NE visible
27 Jan -0.4 20:02:33 10° WNW 20:02:43 11° WNW 20:02:43 11° WNW visible
28 Jan -2.1 19:10:51 10° WNW 19:13:26 25° NNW 19:13:26 25° NNW visible
29 Jan -2.4 18:19:06 10° WNW 18:22:03 29° NNW 18:24:08 16° NE visible
29 Jan -0.6 19:56:33 10° NW 19:56:51 12° NW 19:56:51 12° NW visible
30 Jan -2.0 19:04:57 10° NW 19:07:31 22° N 19:07:31 22° N visible
31 Jan -2.1 18:13:14 10° WNW 18:15:59 24° N 18:18:11 13° NE visible
31 Jan -0.9 19:50:17 10° NW 19:50:54 14° NW 19:50:54 14° NW visible
01 Feb -2.3 18:58:48 10° NW 19:01:34 24° N 19:01:34 24° N visible
